Date String (YYYY-MM-DD hh:mm:ss) UTC,Instrument flags,Ambient pressure (hPa),Sample flow (lpm),Bypass flow (lpm),Sample temperature (°C),Ambient temperature (°C),ASC tube jacket temperature (°C),LED temperature (°C),Box temperature (°C),Sample RH (%),Span deviation,Mass concentration (μg/m³),Mass concentration (μg/m³),Mass concentration (μg/m³)
DateTimeUTC,F1_M11,P_M11,Q1_M11,Q2_M11,T1_M11,T2_M11,T3_M11,T4_M11,T5_M11,U1_M11,ZSPAN_M11,X0_M11,X2_M11,X1_M11
2022-12-31 00:00:00,,0815.8,5.05,0.00,22.6,21.4,00.0,31.5,24.4,10.1,0000.0,0008.47,0004.55,0004.20
2022-12-31 00:01:00,,0815.7,4.99,0.00,22.6,21.5,00.0,31.5,24.4,10.1,0000.0,0008.85,0004.79,0004.42
2022-12-31 00:02:00,,0815.6,4.97,0.00,22.6,21.5,00.0,31.5,24.4,09.9,0000.0,0008.91,0004.91,0004.55
2022-12-31 00:03:00,,0815.7,4.97,0.00,22.6,21.5,00.0,31.5,24.5,09.7,0000.0,0008.89,0004.93,0004.58
2022-12-31 00:04:00,,0815.5,5.06,0.00,22.7,21.5,00.0,31.5,24.5,09.7,0000.0,0008.84,0004.92,0004.60
2022-12-31 00:05:00,,0815.4,5.02,0.00,22.7,21.6,00.0,31.5,24.5,09.6,0000.0,0008.66,0004.81,0004.50
2022-12-31 00:06:00,,0815.3,4.97,0.00,22.7,21.6,00.0,31.5,24.6,09.5,0000.0,0008.69,0004.81,0004.49
2022-12-31 00:07:00,,0815.3,4.98,0.00,22.7,21.6,00.0,31.5,24.6,09.5,0000.0,0008.72,0004.81,0004.49
2022-12-31 00:08:00,,0815.4,4.97,0.00,22.7,21.6,00.0,31.5,24.6,09.9,0000.0,0008.95,0004.96,0004.63
2022-12-31 00:09:00,,0815.4,5.01,0.00,22.8,21.6,00.0,31.6,24.6,10.5,0000.0,0009.54,0005.39,0005.02
2022-12-31 00:10:00,,0815.4,5.02,0.00,22.8,21.6,00.0,31.6,24.6,10.2,0000.0,0009.63,0005.50,0005.15
2022-12-31 00:11:00,,0815.4,4.99,0.00,22.8,21.7,00.0,31.6,24.6,09.8,0000.0,0009.30,0005.34,0005.03
2022-12-31 00:12:00,,0815.4,4.98,0.00,22.8,21.7,00.0,31.6,24.7,09.8,0000.0,0008.98,0005.19,0004.90
2022-12-31 00:13:00,,0815.4,4.97,0.00,22.8,21.7,00.0,31.6,24.7,09.9,0000.0,0008.83,0005.09,0004.79
2022-12-31 00:14:00,,0815.4,5.07,0.00,22.9,21.7,00.0,31.6,24.7,09.9,0000.0,0009.24,0005.06,0004.75
2022-12-31 00:15:00,,0815.4,4.99,0.00,22.9,21.7,00.0,31.6,24.7,09.9,0000.0,0009.65,0005.03,0004.69
2022-12-31 00:16:00,,0815.8,4.96,0.00,22.9,21.5,00.0,31.6,24.7,09.8,0000.0,0009.85,0005.17,0004.81
2022-12-31 00:17:00,,0816.1,5.01,0.00,22.8,21.1,00.0,31.6,24.5,10.1,0000.0,0010.25,0005.46,0005.09
2022-12-31 00:18:00,,0815.9,4.98,0.00,22.7,20.8,00.0,31.6,24.3,10.2,0000.0,0010.98,0005.84,0005.42
2022-12-31 00:19:00,,0815.6,5.01,0.00,22.7,20.7,00.0,31.6,24.3,10.0,0000.0,0011.73,0006.14,0005.67
2022-12-31 00:20:00,,0815.4,4.99,0.00,22.6,20.7,00.0,31.6,24.3,09.9,0000.0,0011.66,0006.02,0005.59
2022-12-31 00:21:00,,0815.4,4.98,0.00,22.6,20.7,00.0,31.6,24.3,09.8,0000.0,0011.40,0005.83,0005.40
2022-12-31 00:22:00,,0815.4,5.05,0.00,22.6,20.8,00.0,31.6,24.3,09.7,0000.0,0011.32,0005.77,0005.32
2022-12-31 00:23:00,,0815.3,5.03,0.00,22.6,20.9,00.0,31.5,24.3,09.9,0000.0,0011.33,0005.76,0005.31
2022-12-31 00:24:00,,0815.4,4.96,0.00,22.6,21.0,00.0,31.5,24.3,09.9,0000.0,0011.64,0005.82,0005.35
2022-12-31 00:25:00,,0815.4,5.00,0.00,22.6,21.1,00.0,31.5,24.3,09.8,0000.0,0011.60,0005.84,0005.37
2022-12-31 00:26:00,,0815.3,5.04,0.00,22.5,21.1,00.0,31.5,24.3,09.5,0000.0,0011.10,0005.88,0005.41
2022-12-31 00:27:00,,0815.3,5.02,0.00,22.5,21.1,00.0,31.5,24.3,09.3,0000.0,0011.39,0005.80,0005.32
2022-12-31 00:28:00,,0815.3,4.98,0.00,22.5,21.2,00.0,31.5,24.3,09.4,0000.0,0010.93,0005.40,0004.96
2022-12-31 00:29:00,,0815.3,5.01,0.00,22.5,21.3,00.0,31.5,24.3,09.7,0000.0,0010.11,0004.98,0004.58
2022-12-31 00:30:00,,0815.4,5.02,0.00,22.5,21.2,00.0,31.5,24.3,09.7,0000.0,0009.23,0004.61,0004.26
2022-12-31 00:31:00,,0815.4,5.00,0.00,22.5,21.3,00.0,31.5,24.3,09.6,0000.0,0008.81,0004.31,0003.98
2022-12-31 00:32:00,,0815.3,4.96,0.00,22.5,21.2,00.0,31.5,24.3,09.7,0000.0,0008.97,0004.23,0003.91
2022-12-31 00:33:00,,0815.3,5.00,0.00,22.5,20.9,00.0,31.5,24.2,09.9,0000.0,0008.77,0004.09,0003.79
2022-12-31 00:34:00,,0815.3,4.99,0.00,22.4,20.8,00.0,31.4,24.1,10.3,0000.0,0008.71,0004.06,0003.76
2022-12-31 00:35:00,,0815.3,5.01,0.00,22.4,20.8,00.0,31.4,24.1,10.5,0000.0,0008.55,0004.15,0003.88
2022-12-31 00:36:00,,0815.3,5.03,0.00,22.4,20.7,00.0,31.4,24.1,10.6,0000.0,0008.60,0004.36,0004.09
2022-12-31 00:37:00,,0815.4,4.95,0.00,22.4,20.6,00.0,31.4,24.0,10.7,0000.0,0008.95,0004.70,0004.43
2022-12-31 00:38:00,,0815.4,5.07,0.00,22.3,20.5,00.0,31.4,23.9,10.7,0000.0,0009.24,0005.17,0004.85
2022-12-31 00:39:00,,0815.4,5.03,0.00,22.3,20.3,00.0,31.4,23.8,10.8,0000.0,0010.01,0005.78,0005.40
2022-12-31 00:40:00,,0815.4,4.97,0.00,22.2,20.2,00.0,31.3,23.8,10.9,0000.0,0010.91,0006.29,0005.92
2022-12-31 00:41:00,,0815.3,4.99,0.00,22.1,20.0,00.0,31.3,23.7,10.7,0000.0,0011.51,0006.71,0006.29
2022-12-31 00:42:00,,0815.2,5.03,0.00,22.1,20.1,00.0,31.3,23.7,10.6,0000.0,0011.55,0006.80,0006.40
2022-12-31 00:43:00,,0815.1,4.97,0.00,22.1,20.1,00.0,31.2,23.6,10.6,0000.0,0011.18,0006.75,0006.35
2022-12-31 00:44:00,,0815.3,4.97,0.00,22.0,20.0,00.0,31.2,23.5,10.6,0000.0,0011.23,0006.79,0006.40
2022-12-31 00:45:00,,0815.4,4.99,0.00,22.0,19.9,00.0,31.2,23.5,10.5,0000.0,0011.02,0006.62,0006.26
2022-12-31 00:46:00,,0815.3,5.00,0.00,22.0,20.0,00.0,31.1,23.6,10.6,0000.0,0010.76,0006.38,0005.99
2022-12-31 00:47:00,,0815.3,4.98,0.00,21.9,20.2,00.0,31.1,23.6,10.7,0000.0,0010.19,0005.96,0005.62
2022-12-31 00:48:00,,0815.2,5.01,0.00,22.0,20.3,00.0,31.1,23.6,10.8,0000.0,0009.48,0005.44,0005.11
2022-12-31 00:49:00,,0815.0,5.03,0.00,22.0,20.4,00.0,31.0,23.6,11.4,0000.0,0008.55,0004.81,0004.58
2022-12-31 00:50:00,,0815.1,4.98,0.00,21.9,20.3,00.0,31.0,23.6,12.0,0000.0,0007.55,0004.14,0003.95
2022-12-31 00:51:00,,0815.0,4.96,0.00,21.9,20.3,00.0,31.0,23.5,12.1,0000.0,0005.78,0003.49,0003.31
2022-12-31 00:52:00,,0814.9,5.01,0.00,21.9,20.3,00.0,30.9,23.5,12.2,0000.0,0004.23,0002.76,0002.51
2022-12-31 00:53:00,,0814.9,5.03,0.00,21.9,20.3,00.0,30.9,23.5,12.4,0000.0,0003.59,0002.30,0002.07
2022-12-31 00:54:00,,0815.0,4.97,0.00,21.9,20.3,00.0,30.9,23.5,12.5,0000.0,0003.16,0001.99,0001.77
2022-12-31 00:55:00,,0815.0,5.00,0.00,21.9,20.3,00.0,30.9,23.5,12.2,0000.0,0002.62,0001.66,0001.46
2022-12-31 00:56:00,,0815.1,5.05,0.00,21.8,20.3,00.0,30.9,23.4,12.4,0000.0,0002.23,0001.37,0001.18
2022-12-31 00:57:00,,0814.9,4.98,0.00,21.8,20.3,00.0,30.8,23.4,12.6,0000.0,0001.51,0000.95,0000.82
2022-12-31 00:58:00,,0815.0,4.98,0.00,21.8,20.2,00.0,30.8,23.4,12.6,0000.0,0001.21,0000.72,0000.58
2022-12-31 00:59:00,,0815.0,4.99,0.00,21.8,20.2,00.0,30.8,23.4,12.6,0000.0,0001.17,0000.62,0000.46
